This is the latest recevied weather packets stored in our database for station/object KI4HRG. If no packets are shown the sender has not sent any weather packets the latest 10 day(s).
| Time | Temp. | Humidity | Pressure | Rain* | Wind** | Luminosity | Snow |
|---|---|---|---|---|---|---|---|
| 1777296471 | 20.56° C | 84% | 1017.6 hPa | 0 mm | - | 337 W/m² | - |
| 1777296168 | 20.56° C | 85% | 1017.4 hPa | 0 mm | - | 283 W/m² | - |
| 1777295864 | 20° C | 85% | 1017.4 hPa | 0 mm | - | 278 W/m² | - |
| 1777295562 | 20.56° C | 85% | 1017.3 hPa | 0 mm | - | 247 W/m² | - |
| 1777295259 | 20° C | 86% | 1017.4 hPa | 0 mm | - | 181 W/m² | - |
| 1777294957 | 20° C | 86% | 1017.1 hPa | 0 mm | - | 139 W/m² | - |
| 1777294652 | 20° C | 87% | 1017.2 hPa | 0 mm | - | 134 W/m² | - |
| 1777294348 | 19.44° C | 88% | 1017.1 hPa | 0 mm | - | 123 W/m² | - |
| 1777294045 | 18.89° C | 90% | 1017.2 hPa | 0 mm | - | 105 W/m² | - |
| 1777293743 | 17.78° C | 91% | 1017 hPa | 0 mm | - | 44 W/m² | - |
| 1777293436 | 17.78° C | 91% | 1017 hPa | 0 mm | - | 28 W/m² | - |
| 1777293133 | 17.78° C | 92% | 1017.1 hPa | 0 mm | - | 25 W/m² | - |
| 1777292832 | 17.78° C | 92% | 1017.2 hPa | 0 mm | - | 23 W/m² | - |
| 1777292529 | 17.78° C | 94% | 1017.1 hPa | 0 mm | - | 21 W/m² | - |
| 1777292225 | 17.22° C | 96% | 1017.1 hPa | 0 mm | - | 22 W/m² | - |
| 1777291921 | 17.22° C | 98% | 1016.9 hPa | 0 mm | - | 20 W/m² | - |
| 1777291618 | 16.67° C | 99% | 1017 hPa | 0 mm | - | 26 W/m² | - |
| 1777291315 | 16.67° C | 99% | 1017 hPa | 0 mm | - | 35 W/m² | - |
| 1777291011 | 16.11° C | 99% | 1016.9 hPa | 0 mm | - | 49 W/m² | - |
| 1777290708 | 15.56° C | 99% | 1016.6 hPa | 0 mm | - | 43 W/m² | - |
| 1777290404 | 15.56° C | 99% | 1016.8 hPa | 0 mm | - | 37 W/m² | - |
| 1777290099 | 15° C | 99% | 1016.6 hPa | 0 mm | - | 34 W/m² | - |
| 1777289797 | 15° C | 99% | 1016.5 hPa | 0 mm | - | 33 W/m² | - |
| 1777289493 | 15° C | 99% | 1016.1 hPa | 0 mm | - | 31 W/m² | - |
| 1777289189 | 15° C | 99% | 1016 hPa | 0 mm | - | 26 W/m² | - |
* Rain latest hour (hover to see other rain measurements)
** Current wind speed in m/s (hover to see current wind gust speed)